EW5171 Weather Reports


time (UTC)temp
C
wind
direction
speed
KPH
gust
KPH
rain 1hr
cm
rain 24hr
cm
rain mn
cm
humidity
%
barometer
mb
20260507140510 13 130 3.2 9.7 0.00 0.00 0.00 67 1018.1
20260507140007 13 205 4.8 11.3 0.00 0.00 0.00 66 1018.1
20260507135512 13 112 4.8 11.3 0.00 0.00 0.00 67 1018.0
20260507135008 13 198 3.2 9.7 0.00 0.00 0.00 68 1018.2
20260507134506 12 142 1.6 9.7 0.00 0.00 0.00 69 1018.0
20260507134010 12 167 3.2 9.7 0.00 0.00 0.00 67 1018.1
20260507133506 13 169 3.2 11.3 0.00 0.00 0.00 68 1018.0
20260507133006 12 171 3.2 12.9 0.00 0.00 0.00 69 1018.0
20260507132509 12 247 3.2 12.9 0.00 0.00 0.00 67 1017.9
20260507132004 13 55 4.8 12.9 0.00 0.00 0.00 68 1018.0
20260507131509 13 155 3.2 9.7 0.00 0.00 0.00 68 1018.0
20260507131004 13 229 4.8 11.3 0.00 0.00 0.00 66 1018.0
20260507130504 13 82 3.2 9.7 0.00 0.00 0.00 66 1017.9
20260507130004 13 153 3.2 9.7 0.00 0.00 0.00 67 1017.9
20260507125503 13 56 3.2 11.3 0.00 0.00 0.00 66 1017.8
20260507125002 13 80 3.2 9.7 0.00 0.00 0.00 66 1017.8
20260507124506 13 116 1.6 11.3 0.00 0.00 0.00 67 1017.8
20260507124002 13 49 1.6 11.3 0.00 0.00 0.00 67 1017.8
20260507123502 13 123 3.2 9.7 0.00 0.00 0.00 66 1017.8
20260507123002 14 157 1.6 12.9 0.00 0.00 0.00 67 1017.9
20260507122600 13 49 1.6 12.9 0.00 0.00 0.00 67 1017.9
20260507122059 14 197 3.2 9.7 0.00 0.00 0.00 65 1017.8
20260507121607 14 96 1.6 8.0 0.00 0.00 0.00 65 1017.8
20260507121058 13 54 1.6 16.1 0.00 0.00 0.00 66 1017.7
20260507120602 13 170 4.8 16.1 0.00 0.00 0.00 65 1017.7
20260507115556 15 167 3.2 11.3 0.00 0.00 0.00 64 1017.6
20260507115055 14 24 3.2 6.4 0.00 0.00 0.00 62 1017.6
20260507114612 13 20 3.2 6.4 0.00 0.00 0.00 64 1017.7
20260507114055 13 121 3.2 12.9 0.00 0.00 0.00 64 1017.7
20260507113555 13 183 3.2 12.9 0.00 0.00 0.00 64 1017.7
20260507113054 13 113 1.6 9.7 0.00 0.00 0.00 66 1017.7
20260507112557 12 217 3.2 9.7 0.00 0.00 0.00 67 1017.7
20260507112057 12 140 3.2 12.9 0.00 0.00 0.00 67 1017.6
20260507111559 12 184 4.8 12.9 0.00 0.00 0.00 67 1017.7
20260507111052 12 168 3.2 9.7 0.00 0.00 0.00 68 1017.7
20260507110552 12 206 1.6 9.7 0.00 0.00 0.00 69 1017.7
20260507110054 12 171 1.6 9.7 0.00 0.00 0.00 67 1017.6
20260507105551 12 94 1.6 6.4 0.00 0.00 0.00 67 1017.6
20260507105051 12 45 0.0 9.7 0.00 0.00 0.00 68 1017.6
20260507104552 12 118 1.6 9.7 0.00 0.00 0.00 67 1017.6
20260507104051 12 165 1.6 11.3 0.00 0.00 0.00 67 1017.6
20260507103550 13 100 1.6 9.7 0.00 0.00 0.00 66 1017.6
20260507103050 13 51 1.6 11.3 0.00 0.00 0.00 65 1017.5
20260507102549 13 95 1.6 8.0 0.00 0.00 0.00 65 1017.5
20260507102049 13 78 1.6 8.0 0.00 0.00 0.00 63 1017.4
20260507101547 14 313 0.0 4.8 0.00 0.00 0.00 64 1017.4
20260507101049 14 40 1.6 6.4 0.00 0.00 0.00 62 1017.4
20260507100547 15 327 1.6 6.4 0.00 0.00 0.00 61 1017.2
20260507100045 15 113 1.6 6.4 0.00 0.00 0.00 61 1017.2
20260507095546 15 86 3.2 9.7 0.00 0.00 0.00 60 1017.2
20260507095044 15 53 3.2 11.3 0.00 0.00 0.00 59 1017.2
20260507094544 14 79 1.6 11.3 0.00 0.00 0.00 61 1017.1
20260507094042 14 27 4.8 11.3 0.00 0.00 0.00 60 1017.0
20260507093542 15 43 3.2 9.7 0.00 0.00 0.00 59 1016.9
20260507093048 15 61 3.2 9.7 0.00 0.00 0.00 60 1016.9
20260507092539 14 106 1.6 9.7 0.00 0.00 0.00 60 1016.8
20260507092038 14 44 3.2 6.4 0.00 0.00 0.00 59 1016.8
20260507091538 14 103 3.2 8.0 0.00 0.00 0.00 59 1016.8
20260507091038 14 28 3.2 8.0 0.00 0.00 0.00 61 1016.8
20260507090537 14 57 3.2 8.0 0.00 0.00 0.00 61 1016.8
20260507090038 14 137 3.2 9.7 0.00 0.00 0.00 62 1016.8
20260507085533 13 88 1.6 8.0 0.00 0.00 0.00 62 1016.7
20260507085032 13 146 3.2 8.0 0.00 0.00 0.00 60 1016.7
20260507084531 13 158 1.6 8.0 0.00 0.00 0.00 60 1016.8
20260507084029 12 76 1.6 8.0 0.00 0.00 0.00 60 1016.8
20260507083528 12 248 3.2 11.3 0.00 0.00 0.00 58 1016.7
20260507083027 12 209 4.8 11.3 0.00 0.00 0.00 58 1016.7
20260507082524 12 265 3.2 9.7 0.00 0.00 0.00 58 1016.6
20260507082023 12 188 1.6 14.5 0.00 0.00 0.00 60 1016.5
20260507081535 12 209 4.8 9.7 0.00 0.00 0.00 57 1016.5
20260507081021 12 205 3.2 9.7 0.00 0.00 0.00 57 1016.4
20260507080522 12 198 0.0 8.0 0.00 0.00 0.00 59 1016.4
20260507080019 12 262 3.2 11.3 0.00 0.00 0.00 62 1016.4
20260507075521 12 177 6.4 11.3 0.00 0.00 0.00 61 1016.4
20260507075017 11 196 3.2 9.7 0.00 0.00 0.00 60 1016.4
20260507074524 11 42 3.2 9.7 0.00 0.00 0.00 62 1016.3
20260507074013 11 312 3.2 6.4 0.00 0.00 0.00 66 1016.3
20260507073514 11 167 1.6 11.3 0.00 0.00 0.00 67 1016.2
20260507073012 11 277 4.8 11.3 0.00 0.00 0.00 68 1016.2
20260507072510 11 140 1.6 9.7 0.00 0.00 0.00 69 1016.2
20260507072008 11 55 3.2 9.7 0.00 0.00 0.00 72 1016.3
20260507071508 11 294 1.6 8.0 0.00 0.00 0.00 75 1016.3
20260507071006 10 213 1.6 9.7 0.00 0.00 0.00 76 1016.2
20260507070505 10 272 1.6 9.7 0.00 0.00 0.00 76 1016.2
20260507070008 10 259 3.2 8.0 0.00 0.00 0.00 77 1016.2
20260507065502 10 255 3.2 6.4 0.00 0.00 0.00 78 1016.2
20260507065003 10 273 1.6 6.4 0.00 0.00 0.00 80 1016.0
20260507064600 10 251 1.6 6.4 0.00 0.00 0.00 80 1016.0
20260507064058 9 204 0.0 6.4 0.00 0.00 0.00 82 1016.1
20260507063557 9 46 1.6 8.0 0.00 0.00 0.00 83 1016.0
20260507063057 8 251 0.0 4.8 0.00 0.00 0.00 84 1016.0
20260507062554 8 280 1.6 6.4 0.00 0.00 0.00 85 1016.0
20260507062052 8 136 3.2 6.4 0.00 0.00 0.00 87 1016.0
20260507061551 8 218 0.0 11.3 0.00 0.00 0.00 88 1015.8
20260507061050 7 198 3.2 11.3 0.00 0.00 0.00 89 1015.8
20260507060548 7 202 1.6 6.4 0.00 0.00 0.00 91 1015.7
20260507060046 7 233 1.6 6.4 0.00 0.00 0.00 92 1015.6
20260507055545 6 224 3.2 6.4 0.00 0.00 0.00 93 1015.6
20260507055047 6 225 0.0 4.8 0.00 0.00 0.00 94 1015.5
20260507054600 5 225 0.0 3.2 0.00 0.00 0.00 95 1015.6
20260507054040 5 225 0.0 6.4 0.00 0.00 0.00 95 1015.5
20260507053539 5 225 3.2 6.4 0.00 0.00 0.00 95 1015.5
20260507053037 3 265 0.0 0.0 0.00 0.00 0.00 95 1015.5
20260507052536 3 265 0.0 1.6 0.00 0.00 0.00 95 1015.4
20260507052035 3 265 0.0 1.6 0.00 0.00 0.00 95 1015.4
20260507051535 2 265 0.0 1.6 0.00 0.00 0.00 95 1015.4
20260507051035 2 265 0.0 1.6 0.00 0.00 0.00 95 1015.4
20260507050532 2 265 0.0 0.0 0.00 0.00 0.00 94 1015.4
20260507050033 1 184 0.0 0.0 0.00 0.00 0.00 94 1015.4
20260507045532 1 184 0.0 0.0 0.00 0.00 0.00 94 1015.3
20260507045030 1 184 0.0 0.0 0.00 0.00 0.00 94 1015.3
20260507044531 1 184 0.0 0.0 0.00 0.00 0.00 93 1015.2
20260507044030 1 184 0.0 0.0 0.00 0.00 0.00 93 1015.2
20260507043529 1 184 0.0 0.0 0.00 0.00 0.00 93 1015.1
20260507043028 1 184 0.0 0.0 0.00 0.00 0.00 93 1015.1
20260507042527 1 184 0.0 0.0 0.00 0.00 0.00 93 1015.0
20260507042026 0 184 0.0 0.0 0.00 0.00 0.00 93 1015.0
20260507041525 0 184 0.0 0.0 0.00 0.00 0.00 93 1014.9
20260507041025 0 184 0.0 0.0 0.00 0.00 0.00 93 1014.9
20260507040525 0 184 0.0 0.0 0.00 0.00 0.00 93 1014.9
20260507040023 0 184 0.0 0.0 0.00 0.00 0.00 92 1014.9
20260507035523 0 184 0.0 0.0 0.00 0.00 0.00 92 1014.8
20260507035023 0 184 0.0 0.0 0.00 0.00 0.00 92 1014.9
20260507034522 0 184 0.0 0.0 0.00 0.00 0.00 92 1014.9
20260507034023 0 184 0.0 0.0 0.00 0.00 0.00 92 1014.8
20260507033521 0 184 0.0 0.0 0.00 0.00 0.00 92 1014.8
20260507033023 0 184 0.0 0.0 0.00 0.00 0.00 92 1014.8
20260507032519 0 184 0.0 0.0 0.00 0.00 0.00 92 1014.7
20260507032023 0 184 0.0 0.0 0.00 0.00 0.00 92 1014.8
20260507031518 0 184 0.0 0.0 0.00 0.00 0.00 91 1014.7
20260507031020 0 184 0.0 0.0 0.00 0.00 0.00 91 1014.7
20260507030518 0 184 0.0 0.0 0.00 0.00 0.00 91 1014.7
20260507030017 0 184 0.0 0.0 0.00 0.00 0.00 91 1014.7
20260507025516 0 184 0.0 0.0 0.00 0.00 0.00 91 1014.6
20260507025015 0 184 0.0 0.0 0.00 0.00 0.00 91 1014.6
20260507024515 0 184 0.0 0.0 0.00 0.00 0.00 91 1014.6
20260507024016 0 184 0.0 0.0 0.00 0.00 0.00 91 1014.5
20260507023514 0 184 0.0 0.0 0.00 0.00 0.00 91 1014.5
20260507023013 0 184 0.0 0.0 0.00 0.00 0.00 91 1014.4
20260507022512 0 184 0.0 0.0 0.00 0.00 0.00 91 1014.4
20260507022012 0 184 0.0 0.0 0.00 0.00 0.00 90 1014.4
20260507021510 1 184 0.0 0.0 0.00 0.00 0.00 91 1014.3
20260507021010 1 184 0.0 0.0 0.00 0.00 0.00 90 1014.3
20260507020509 1 184 0.0 0.0 0.00 0.00 0.00 90 1014.3
20260507020011 1 184 0.0 0.0 0.00 0.00 0.00 90 1014.3
20260507015508 1 184 0.0 0.0 0.00 0.00 0.00 90 1014.3
20260507015008 1 184 0.0 0.0 0.00 0.00 0.00 90 1014.3
20260507014508 1 184 0.0 0.0 0.00 0.00 0.00 90 1014.3
20260507014008 1 184 0.0 0.0 0.00 0.00 0.00 90 1014.2
20260507013507 1 184 0.0 0.0 0.00 0.00 0.00 89 1014.2
20260507013006 1 184 0.0 0.0 0.00 0.00 0.00 90 1014.1
20260507012505 1 184 0.0 0.0 0.00 0.00 0.00 90 1014.2
20260507012008 1 184 0.0 0.0 0.00 0.00 0.00 90 1014.2
20260507011505 1 184 0.0 0.0 0.00 0.00 0.00 89 1014.1
20260507011007 1 184 0.0 0.0 0.00 0.00 0.00 89 1014.2
20260507010504 1 184 0.0 0.0 0.00 0.00 0.00 89 1014.2
20260507010005 1 184 0.0 0.0 0.00 0.00 0.00 89 1014.1
20260507005502 1 184 0.0 0.0 0.00 0.00 0.00 89 1014.2
20260507005003 1 184 0.0 0.0 0.00 0.00 0.00 88 1014.1
20260507004600 2 184 0.0 0.0 0.00 0.00 0.00 89 1014.0
20260507004059 2 184 0.0 0.0 0.00 0.00 0.00 89 1014.1
20260507003559 2 184 0.0 0.0 0.00 0.00 0.00 88 1014.0
20260507003058 2 184 0.0 0.0 0.00 0.00 0.00 89 1014.0
20260507002558 2 184 0.0 0.0 0.00 0.00 0.00 89 1014.0
20260507002057 2 184 0.0 0.0 0.00 0.00 0.00 89 1014.1
20260507001604 2 184 0.0 0.0 0.00 0.00 0.00 88 1014.0
20260507001056 2 184 0.0 0.0 0.00 0.00 0.00 88 1014.0
20260507000556 2 184 0.0 0.0 0.00 0.00 0.00 87 1014.0
20260507000056 2 184 0.0 0.0 0.00 0.00 0.00 87 1013.9
20260506235558 2 184 0.0 0.0 0.00 0.00 0.00 87 1013.9
20260506235055 2 184 0.0 0.0 0.00 0.00 0.00 87 1013.9
20260506234556 2 184 0.0 0.0 0.00 0.00 0.00 87 1013.9
20260506234054 2 184 0.0 0.0 0.00 0.00 0.00 86 1013.9
20260506233554 2 184 0.0 0.0 0.00 0.00 0.00 86 1013.9
20260506233109 2 184 0.0 0.0 0.00 0.00 0.00 85 1014.0
20260506232551 2 184 0.0 0.0 0.00 0.00 0.00 85 1014.0
20260506232050 2 184 0.0 0.0 0.00 0.00 0.00 86 1014.1
20260506231550 2 184 0.0 0.0 0.00 0.00 0.00 86 1014.1
20260506231051 2 184 0.0 0.0 0.00 0.00 0.00 85 1014.0
20260506230548 2 184 0.0 0.0 0.00 0.00 0.00 84 1013.9
20260506230048 3 184 0.0 0.0 0.00 0.00 0.00 84 1013.9
20260506225546 3 184 0.0 0.0 0.00 0.00 0.00 83 1013.8
20260506225046 3 184 0.0 0.0 0.00 0.00 0.00 83 1013.7
20260506224546 3 184 0.0 0.0 0.00 0.00 0.00 83 1013.7
20260506224044 3 184 0.0 0.0 0.00 0.00 0.00 83 1013.7
20260506223546 3 184 0.0 0.0 0.00 0.00 0.00 82 1013.7
20260506223046 3 184 0.0 0.0 0.00 0.00 0.00 82 1013.7
20260506222543 3 184 0.0 0.0 0.00 0.00 0.00 82 1013.6
20260506222042 3 184 0.0 0.0 0.00 0.00 0.00 81 1013.6
20260506221540 3 184 0.0 0.0 0.00 0.00 0.00 80 1013.7
20260506221039 3 184 0.0 0.0 0.00 0.00 0.00 80 1013.6
20260506220538 4 184 0.0 0.0 0.00 0.00 0.00 80 1013.7
20260506220037 4 184 0.0 0.0 0.00 0.00 0.00 80 1013.7
20260506215539 5 184 0.0 0.0 0.00 0.00 0.00 80 1013.6
20260506215036 5 184 0.0 0.0 0.00 0.00 0.00 79 1013.6
20260506214536 5 184 0.0 0.0 0.00 0.00 0.00 79 1013.5
20260506214035 5 184 0.0 0.0 0.00 0.00 0.00 79 1013.5
20260506213535 5 184 0.0 0.0 0.00 0.00 0.00 78 1013.5
20260506213035 5 184 0.0 0.0 0.00 0.00 0.00 78 1013.4
20260506212534 5 184 0.0 0.0 0.00 0.00 0.00 78 1013.4
20260506212038 5 184 0.0 0.0 0.00 0.00 0.00 77 1013.4
20260506211535 6 57 0.0 0.0 0.00 0.00 0.00 78 1013.4
20260506211033 6 57 0.0 0.0 0.00 0.00 0.00 77 1013.4
20260506210533 6 57 0.0 0.0 0.00 0.00 0.00 77 1013.4
20260506210033 6 57 0.0 0.0 0.00 0.00 0.00 76 1013.3
20260506205535 6 57 0.0 0.0 0.00 0.00 0.00 76 1013.3
20260506205034 6 57 0.0 0.0 0.00 0.00 0.00 76 1013.3
20260506204531 7 57 0.0 0.0 0.00 0.00 0.00 76 1013.2
20260506204033 7 57 0.0 0.0 0.00 0.00 0.00 75 1013.2
20260506203530 7 57 0.0 0.0 0.00 0.00 0.00 75 1013.2
20260506203030 7 57 0.0 0.0 0.00 0.00 0.00 75 1013.2
20260506202529 7 57 0.0 0.0 0.00 0.00 0.00 74 1013.1
20260506202029 7 57 0.0 0.0 0.00 0.00 0.00 74 1013.1
20260506201530 7 57 0.0 0.0 0.00 0.00 0.00 73 1013.1
20260506201029 7 57 0.0 1.6 0.00 0.00 0.00 72 1013.0
20260506200531 8 57 0.0 3.2 0.00 0.00 0.00 72 1013.0
20260506200028 8 57 0.0 3.2 0.00 0.00 0.00 71 1013.0
20260506195527 8 57 0.0 1.6 0.00 0.00 0.00 70 1013.0
20260506195027 8 57 0.0 1.6 0.00 0.00 0.00 70 1012.9
20260506194527 8 57 0.0 3.2 0.00 0.00 0.00 69 1013.0
20260506194028 9 57 0.0 3.2 0.00 0.00 0.00 69 1012.9
20260506193526 9 57 0.0 3.2 0.00 0.00 0.00 68 1012.9
20260506193028 9 57 0.0 3.2 0.00 0.00 0.00 67 1012.8
20260506192528 9 57 0.0 3.2 0.00 0.00 0.00 66 1012.8
20260506192024 10 57 0.0 3.2 0.00 0.00 0.00 66 1012.7
20260506191525 10 26 0.0 1.6 0.00 0.00 0.00 66 1012.7
20260506191024 10 26 0.0 1.6 0.00 0.00 0.00 65 1012.6
20260506190523 10 26 0.0 0.0 0.00 0.00 0.00 64 1012.5
20260506190023 10 26 0.0 0.0 0.00 0.00 0.00 63 1012.5
20260506185524 10 26 0.0 1.6 0.00 0.00 0.00 62 1012.5
20260506185023 10 26 0.0 1.6 0.00 0.00 0.00 61 1012.4
20260506184523 11 26 0.0 1.6 0.00 0.00 0.00 59 1012.3
20260506184023 11 26 0.0 0.0 0.00 0.00 0.00 58 1012.3
20260506183523 11 26 0.0 0.0 0.00 0.00 0.00 58 1012.3
20260506183023 11 26 0.0 0.0 0.00 0.00 0.00 58 1012.2
20260506182522 11 26 0.0 1.6 0.00 0.00 0.00 58 1012.2
20260506182023 11 26 0.0 1.6 0.00 0.00 0.00 56 1012.1
20260506181521 12 26 0.0 0.0 0.00 0.00 0.00 55 1012.0
20260506181021 12 26 0.0 1.6 0.00 0.00 0.00 53 1012.0
20260506180521 12 26 0.0 1.6 0.00 0.00 0.00 52 1011.9
20260506180021 12 26 0.0 3.2 0.00 0.00 0.00 52 1011.9
20260506175520 12 26 0.0 6.4 0.00 0.00 0.00 50 1011.9
20260506175023 12 16 1.6 6.4 0.00 0.00 0.00 48 1011.8
20260506174521 12 65 0.0 3.2 0.00 0.00 0.00 46 1011.7
20260506174024 12 211 0.0 4.8 0.00 0.00 0.00 47 1011.7
20260506173520 13 54 0.0 4.8 0.00 0.00 0.00 45 1011.7
20260506173020 13 54 1.6 4.8 0.00 0.00 0.00 46 1011.7
20260506172520 13 54 0.0 3.2 0.00 0.00 0.00 44 1011.7
20260506172019 13 44 0.0 3.2 0.00 0.00 0.00 43 1011.6
20260506171521 13 55 0.0 4.8 0.00 0.00 0.00 41 1011.6
20260506171019 13 55 1.6 4.8 0.00 0.00 0.00 42 1011.6
20260506170519 13 18 0.0 3.2 0.00 0.00 0.00 41 1011.6
20260506170021 13 57 0.0 4.8 0.00 0.00 0.00 41 1011.6
20260506165519 13 51 1.6 6.4 0.00 0.00 0.00 39 1011.5
20260506165018 13 51 3.2 6.4 0.00 0.00 0.00 38 1011.5
20260506164518 14 58 1.6 6.4 0.00 0.00 0.00 38 1011.5
20260506164017 14 33 0.0 6.4 0.00 0.00 0.00 39 1011.5
20260506163517 14 128 1.6 6.4 0.00 0.00 0.00 39 1011.5
20260506163031 14 355 0.0 4.8 0.00 0.00 0.00 38 1011.5
20260506162521 14 55 1.6 6.4 0.00 0.00 0.00 39 1011.5
20260506162017 15 113 1.6 8.0 0.00 0.00 0.00 39 1011.5
20260506161516 15 69 3.2 8.0 0.00 0.00 0.00 38 1011.5
20260506161016 15 20 0.0 3.2 0.00 0.00 0.00 38 1011.4
20260506160516 15 42 0.0 8.0 0.00 0.00 0.00 37 1011.4
20260506160117 14 42 0.0 8.0 0.00 0.00 0.00 40 1011.4
20260506155515 14 265 1.6 8.0 0.00 0.00 0.00 39 1011.4
20260506155016 15 84 3.2 8.0 0.00 0.00 0.00 38 1011.4
20260506154515 15 38 3.2 8.0 0.00 0.00 0.00 38 1011.4
20260506154115 15 350 1.6 9.7 0.00 0.00 0.00 39 1011.4
20260506153514 15 333 1.6 6.4 0.00 0.00 0.00 40 1011.4
20260506153015 14 74 3.2 11.3 0.00 0.00 0.00 40 1011.4
20260506152514 15 71 4.8 11.3 0.00 0.00 0.00 37 1011.4
20260506152019 15 40 3.2 9.7 0.00 0.00 0.00 39 1011.5
20260506151512 14 39 3.2 9.7 0.00 0.00 0.00 38 1011.4
20260506151013 14 33 1.6 8.0 0.00 0.00 0.00 41 1011.5
20260506150514 13 44 3.2 9.7 0.00 0.00 0.00 40 1011.5
20260506150012 14 34 6.4 11.3 0.00 0.00 0.00 39 1011.5
20260506145515 14 348 3.2 14.5 0.00 0.00 0.00 39 1011.6
20260506145013 14 67 3.2 11.3 0.00 0.00 0.00 40 1011.5
20260506144512 14 57 3.2 11.3 0.00 0.00 0.00 39 1011.6
20260506144012 14 46 3.2 11.3 0.00 0.00 0.00 40 1011.5
20260506143512 15 53 6.4 11.3 0.00 0.00 0.00 38 1011.6
20260506143011 15 81 3.2 11.3 0.00 0.00 0.00 41 1011.6
20260506142510 15 40 3.2 8.0 0.00 0.00 0.00 41 1011.6
20260506142011 14 17 3.2 8.0 0.00 0.00 0.00 41 1011.6
20260506141510 14 348 3.2 14.5 0.00 0.00 0.00 40 1011.8
20260506141010 14 59 4.8 14.5 0.00 0.00 0.00 39 1011.7